SL-3 R/B, 11963

Orbit data source: Space-Track

SL-3 R/B, 11963 is space debris in LEO originally from a launch on Tue, 09 Sep 1980 UTC launched from the Plesetsk Missile And Space Complex (PKMTR). Debris objects in space refer to the collection of defunct objects orbiting the Earth. Examples of debris include non-operational satellites, rocket bodies, and fragments generated from explosions, collisions, or faulty payload assembly.

Loading next visibility...
Identifier
11963, 1980-073B
Orbit
LEO
Country
Flag of CISCIS
Related business
Manufacturer
Progress
Mission
Spacecraft
Bus & Motor
BLOK-E, Unknown motor
Mass
1,440 kg wet, 1,440 kg dry
Launch date (UTC)
1980-09-09 (46 years ago)
Launch vehicle
Unknown
Launch site
Plesetsk Missile And Space Complex (PKMTR)
Object type
Payload
Rocket body
Debris
Shape & HBR
CYL, 1.1 m
Radar Cross Section
Large (>1 m²)

Expand to show TLE details & history
Last TLE update: 18 hours ago

TLE from 18 hours ago
0 SL-3 R/B
1 11963U 80073B   26266.95690744  .00000169  00000-0  86418-4 0  9991
2 11963  81.2731  81.8486 0074091 209.8687 149.8248 14.10187766367339
Epoch: 2026-09-23T22:57Z
TLE epoch observation values (Epoch: 2026-09-23T22:57:56.802Z)
Latitude
0.00004°
Longitude
94.56135°
Altitude
908.091 km
Speed
7.374 km/s
True Right ascension
05h 27m 23s
True Declination
0° 00' 00"
Sunlit
Object was in daylight at epoch
Visualization orbit readout
Latitude
Unknown
Longitude
Unknown
Altitude
Unknown
Speed
Unknown
Apparent Right ascension
Unknown
Apparent Declination
Unknown
Sunlit
N/A
Visualization observer readout
Local Sidereal Time
10:06:59
Azimuth
Unknown
Elevation
Unknown
Doppler factor
Unknown
Orbital elements
Apogee altitude
909.499 km
Perigee altitude
802.304 km
Semi-major axis
7,234.039 km
Eccentricity
0.00741
Inclination
81.2731°
RAAN
81.8486°
Arg. of periapsis
209.8687°
True anomaly
150.24816°
Mean anomaly
149.8248°
Eccentric anomaly
150.03682°
Mean motion
3.52754 °/min
Orbital period
102.05 mins
BSTAR
0.000086418
Loading maneuver chart data...
Computing Atmospheric mass density...
Loading historical data...
Loading historical data...
Loading historical data...
Loading historical data...
Loading historical data...
Loading historical data...
Loading historical data...

Documentation

Showing up to 5 results
|